| time (UTC) | temp F | wind direction | speed MPH | gust MPH | rain 1hr in | rain 24hr in | rain mn in | humidity % | barometer mb |
| 20260904231556 | 63 | 248 | 9.0 | 14.0 | 0.00 | 0.00 | 0.00 | 72 | 1013.6 |
| 20260904230051 | 64 | 228 | 12.0 | 15.0 | 0.00 | 0.00 | 0.00 | 72 | 1013.8 |
| 20260904224601 | 64 | 250 | 12.0 | 18.0 | 0.00 | 0.00 | 0.00 | 72 | 1013.8 |
| 20260904223059 | 64 | 212 | 13.0 | 18.0 | 0.00 | 0.00 | 0.00 | 71 | 1013.7 |
| 20260904221555 | 64 | 224 | 11.0 | 15.0 | 0.00 | 0.00 | 0.00 | 71 | 1014.1 |
| 20260904220107 | 65 | 221 | 10.0 | 15.0 | 0.00 | 0.00 | 0.00 | 70 | 1014.4 |
| 20260904214549 | 66 | 229 | 12.0 | 17.0 | 0.00 | 0.00 | 0.00 | 69 | 1014.4 |
| 20260904213052 | 67 | 227 | 13.0 | 17.0 | 0.00 | 0.00 | 0.00 | 66 | 1014.3 |
| 20260904211555 | 68 | 244 | 12.0 | 20.0 | 0.00 | 0.00 | 0.00 | 65 | 1014.3 |
| 20260904210106 | 67 | 236 | 16.0 | 20.0 | 0.00 | 0.00 | 0.00 | 67 | 1014.4 |
| 20260904204553 | 67 | 248 | 14.0 | 22.0 | 0.00 | 0.00 | 0.00 | 67 | 1014.4 |
| 20260904203052 | 68 | 241 | 15.0 | 19.0 | 0.00 | 0.00 | 0.00 | 67 | 1014.6 |
| 20260904201552 | 67 | 250 | 11.0 | 18.0 | 0.00 | 0.00 | 0.00 | 67 | 1014.7 |
| 20260904200109 | 68 | 240 | 14.0 | 23.0 | 0.00 | 0.00 | 0.00 | 66 | 1014.9 |
| 20260904194633 | 68 | 243 | 18.0 | 25.0 | 0.00 | 0.00 | 0.00 | 66 | 1014.7 |
| 20260904193052 | 69 | 250 | 18.0 | 23.0 | 0.00 | 0.00 | 0.00 | 66 | 1014.7 |
| 20260904191552 | 69 | 251 | 17.0 | 24.0 | 0.00 | 0.00 | 0.00 | 65 | 1014.7 |
| 20260904190059 | 69 | 242 | 18.0 | 26.0 | 0.00 | 0.00 | 0.00 | 65 | 1014.9 |
| 20260904184604 | 68 | 252 | 16.0 | 26.0 | 0.00 | 0.00 | 0.00 | 66 | 1015.1 |
| 20260904183050 | 69 | 262 | 20.0 | 27.0 | 0.00 | 0.00 | 0.00 | 65 | 1014.9 |
| 20260904181600 | 69 | 254 | 19.0 | 28.0 | 0.00 | 0.00 | 0.00 | 64 | 1014.8 |
| 20260904180054 | 69 | 232 | 18.0 | 23.0 | 0.00 | 0.00 | 0.00 | 65 | 1014.8 |
| 20260904174550 | 69 | 239 | 15.0 | 22.0 | 0.00 | 0.00 | 0.00 | 65 | 1014.9 |
| 20260904173109 | 68 | 258 | 15.0 | 20.0 | 0.00 | 0.00 | 0.00 | 65 | 1014.7 |
| 20260904171551 | 69 | 240 | 14.0 | 21.0 | 0.00 | 0.00 | 0.00 | 64 | 1014.8 |
| 20260904170054 | 70 | 225 | 17.0 | 26.0 | 0.00 | 0.00 | 0.00 | 63 | 1014.8 |
| 20260904164602 | 70 | 244 | 20.0 | 29.0 | 0.00 | 0.00 | 0.00 | 62 | 1014.8 |
| 20260904163057 | 70 | 227 | 21.0 | 31.0 | 0.00 | 0.00 | 0.00 | 62 | 1014.8 |
| 20260904161554 | 70 | 248 | 16.0 | 31.0 | 0.00 | 0.00 | 0.00 | 61 | 1014.9 |
| 20260904160103 | 71 | 240 | 19.0 | 27.0 | 0.00 | 0.00 | 0.00 | 60 | 1015.1 |
| 20260904154617 | 71 | 247 | 15.0 | 25.0 | 0.00 | 0.00 | 0.00 | 60 | 1015.4 |
| 20260904153057 | 72 | 259 | 18.0 | 30.0 | 0.00 | 0.00 | 0.00 | 58 | 1015.6 |
| 20260904151601 | 72 | 249 | 20.0 | 28.0 | 0.00 | 0.00 | 0.00 | 58 | 1015.6 |
| 20260904150050 | 72 | 252 | 18.0 | 26.0 | 0.00 | 0.00 | 0.00 | 59 | 1015.6 |
| 20260904144600 | 72 | 262 | 19.0 | 26.0 | 0.00 | 0.00 | 0.00 | 59 | 1015.9 |
| 20260904143056 | 71 | 242 | 20.0 | 29.0 | 0.00 | 0.00 | 0.00 | 58 | 1016.1 |
| 20260904141617 | 72 | 236 | 21.0 | 31.0 | 0.00 | 0.00 | 0.00 | 58 | 1016.1 |
| 20260904140104 | 72 | 252 | 22.0 | 30.0 | 0.00 | 0.00 | 0.00 | 58 | 1015.8 |
| 20260904134619 | 71 | 254 | 22.0 | 31.0 | 0.00 | 0.00 | 0.00 | 59 | 1015.9 |
| 20260904133109 | 73 | 248 | 27.0 | 36.0 | 0.00 | 0.00 | 0.00 | 55 | 1016.3 |
| 20260904131607 | 74 | 244 | 23.0 | 33.0 | 0.00 | 0.00 | 0.00 | 53 | 1016.4 |
| 20260904130050 | 74 | 244 | 23.0 | 33.0 | 0.00 | 0.00 | 0.00 | 55 | 1016.7 |
| 20260904124548 | 74 | 261 | 23.0 | 33.0 | 0.00 | 0.00 | 0.00 | 54 | 1016.7 |
| 20260904123053 | 73 | 244 | 22.0 | 31.0 | 0.00 | 0.00 | 0.00 | 55 | 1016.6 |
| 20260904121549 | 72 | 259 | 23.0 | 33.0 | 0.00 | 0.00 | 0.00 | 54 | 1016.8 |
| 20260904120059 | 73 | 259 | 26.0 | 34.0 | 0.00 | 0.00 | 0.00 | 54 | 1017.2 |
| 20260904114552 | 71 | 258 | 25.0 | 32.0 | 0.00 | 0.00 | 0.00 | 56 | 1017.3 |
| 20260904113050 | 71 | 254 | 24.0 | 30.0 | 0.00 | 0.00 | 0.00 | 55 | 1017.3 |
| 20260904111601 | 72 | 234 | 23.0 | 30.0 | 0.00 | 0.00 | 0.00 | 57 | 1017.7 |
| 20260904110057 | 71 | 244 | 19.0 | 33.0 | 0.00 | 0.00 | 0.00 | 58 | 1017.8 |
| 20260904104552 | 70 | 256 | 23.0 | 33.0 | 0.00 | 0.00 | 0.00 | 59 | 1018.2 |
| 20260904103053 | 71 | 246 | 21.0 | 31.0 | 0.00 | 0.00 | 0.00 | 59 | 1017.9 |
| 20260904101553 | 71 | 248 | 20.0 | 29.0 | 0.00 | 0.00 | 0.00 | 60 | 1018.0 |
| 20260904100105 | 69 | 264 | 21.0 | 30.0 | 0.00 | 0.00 | 0.00 | 63 | 1018.0 |
| 20260904094552 | 68 | 242 | 18.0 | 27.0 | 0.00 | 0.00 | 0.00 | 65 | 1018.3 |
| 20260904093055 | 67 | 248 | 17.0 | 26.0 | 0.00 | 0.00 | 0.00 | 66 | 1018.4 |
| 20260904091550 | 68 | 256 | 19.0 | 28.0 | 0.00 | 0.00 | 0.00 | 65 | 1018.4 |
| 20260904090057 | 69 | 258 | 18.0 | 24.0 | 0.00 | 0.00 | 0.00 | 63 | 1018.6 |
| 20260904084554 | 69 | 271 | 15.0 | 23.0 | 0.00 | 0.00 | 0.00 | 65 | 1019.1 |
| 20260904083105 | 68 | 254 | 13.0 | 21.0 | 0.00 | 0.00 | 0.00 | 69 | 1019.1 |
| 20260904081550 | 65 | 263 | 9.0 | 16.0 | 0.00 | 0.00 | 0.00 | 72 | 1019.2 |
| 20260904080057 | 63 | 292 | 3.0 | 8.0 | 0.00 | 0.00 | 0.00 | 72 | 1019.0 |
| 20260904074553 | 63 | 317 | 2.0 | 14.0 | 0.00 | 0.00 | 0.00 | 73 | 1018.9 |
| 20260904073053 | 63 | 263 | 10.0 | 13.0 | 0.00 | 0.00 | 0.00 | 75 | 1018.9 |
| 20260904071601 | 61 | 272 | 2.0 | 12.0 | 0.00 | 0.00 | 0.00 | 76 | 1018.9 |
| 20260904070059 | 60 | 290 | 2.0 | 8.0 | 0.00 | 0.00 | 0.00 | 79 | 1018.6 |
| 20260904064614 | 59 | 80 | 2.0 | 4.0 | 0.00 | 0.00 | 0.00 | 79 | 1018.5 |
| 20260904063059 | 58 | 249 | 2.0 | 5.0 | 0.00 | 0.00 | 0.00 | 80 | 1018.8 |
| 20260904061600 | 58 | 18 | 5.0 | 8.0 | 0.00 | 0.00 | 0.00 | 80 | 1018.5 |
| 20260904060057 | 57 | 26 | 2.0 | 7.0 | 0.00 | 0.00 | 0.00 | 80 | 1018.7 |
| 20260904054554 | 57 | 38 | 4.0 | 6.0 | 0.00 | 0.00 | 0.00 | 81 | 1018.4 |
| 20260904053057 | 57 | 61 | 3.0 | 5.0 | 0.00 | 0.00 | 0.00 | 83 | 1018.4 |
| 20260904051550 | 56 | 200 | 2.0 | 5.0 | 0.00 | 0.00 | 0.00 | 85 | 1018.4 |
| 20260904050112 | 55 | 262 | 3.0 | 5.0 | 0.00 | 0.00 | 0.00 | 86 | 1018.4 |
| 20260904044556 | 54 | 43 | 0.0 | 6.0 | 0.00 | 0.00 | 0.00 | 87 | 1018.4 |
| 20260904043102 | 53 | 70 | 2.0 | 7.0 | 0.00 | 0.00 | 0.00 | 87 | 1018.6 |
| 20260904041606 | 52 | 74 | 1.0 | 4.0 | 0.00 | 0.00 | 0.00 | 88 | 1018.3 |
| 20260904040051 | 51 | 0 | 1.0 | 4.0 | 0.00 | 0.00 | 0.00 | 88 | 1018.3 |
| 20260904034611 | 51 | 96 | 3.0 | 4.0 | 0.00 | 0.00 | 0.00 | 88 | 1018.2 |
| 20260904033059 | 51 | 96 | 0.0 | 3.0 | 0.00 | 0.00 | 0.00 | 88 | 1018.3 |
| 20260904031554 | 50 | 0 | 0.0 | 4.0 | 0.00 | 0.00 | 0.00 | 88 | 1018.3 |
| 20260904030052 | 49 | 90 | 3.0 | 6.0 | 0.00 | 0.00 | 0.00 | 88 | 1018.4 |
| 20260904024550 | 48 | 261 | 1.0 | 3.0 | 0.00 | 0.03 | 0.00 | 88 | 1018.4 |
| 20260904023047 | 48 | 0 | 0.0 | 4.0 | 0.00 | 0.03 | 0.00 | 88 | 1018.4 |
| 20260904021553 | 48 | 244 | 0.0 | 4.0 | 0.00 | 0.03 | 0.00 | 87 | 1018.7 |
| 20260904020051 | 49 | 42 | 1.0 | 4.0 | 0.00 | 0.03 | 0.00 | 88 | 1018.6 |
| 20260904014553 | 48 | 0 | 1.0 | 4.0 | 0.00 | 0.03 | 0.00 | 87 | 1018.8 |
| 20260904013054 | 48 | 0 | 0.0 | 4.0 | 0.00 | 0.03 | 0.00 | 87 | 1018.8 |
| 20260904011551 | 48 | 239 | 0.0 | 5.0 | 0.00 | 0.03 | 0.00 | 87 | 1019.2 |
| 20260904010057 | 48 | 0 | 0.0 | 4.0 | 0.00 | 0.03 | 0.00 | 86 | 1019.2 |
| 20260904004554 | 48 | 0 | 1.0 | 4.0 | 0.00 | 0.03 | 0.00 | 87 | 1019.3 |
| 20260904003051 | 48 | 244 | 1.0 | 4.0 | 0.00 | 0.03 | 0.00 | 87 | 1019.3 |
| 20260904001558 | 47 | 0 | 1.0 | 3.0 | 0.00 | 0.03 | 0.00 | 86 | 1019.5 |
| 20260903234552 | 48 | 5 | 4.0 | 7.0 | 0.00 | 0.03 | 0.00 | 87 | 1019.3 |
| 20260903233103 | 47 | 306 | 1.0 | 3.0 | 0.00 | 0.03 | 0.00 | 86 | 1019.5 |